Wind_Speed
32 36 42 36 31 22 18 14 17 24 18 20 21 20 19 19 18 14 18 15 11 18 24 26 30 31 30 29 28 25 24 24 26 24 22 19 15 14 13 13 10 8 6 4
33 41 33 33 33 29 23 16 14 21 19 21 18 22 22 23 17 16 20 17 12 14 23 28 32 32 33 30 29 28 26 26 26 26 22 20 17 16 16 14 12 9 7 5
30 22 32 33 34 32 30 25 20 17 17 16 18 19 26 26 25 25 23 24 20 16 15 27 31 34 33 32 29 30 28 27 27 27 26 24 23 21 19 15 12 10 7 5
25 31 8 15 35 33 29 32 24 23 12 16 17 19 26 28 26 27 27 27 27 25 19 21 31 34 34 32 31 29 31 30 29 28 28 26 23 20 16 14 13 11 9 7
19 16 29 15 19 30 27 24 32 26 19 16 16 13 27 20 27 26 28 26 23 24 26 22 21 31 32 33 33 32 32 33 33 32 30 28 26 23 22 19 16 13 11 9
20 25 12 24 25 17 21 9 13 19 24 24 30 18 26 27 30 28 26 28 26 24 26 25 24 24 33 35 36 35 35 34 34 35 33 30 27 25 24 21 18 14 12 11
23 24 21 21 11 15 21 21 7 10 14 18 25 26 33 18 29 35 26 23 19 22 26 27 28 30 28 34 39 38 37 37 35 36 35 33 29 27 26 23 20 17 14 11
13 12 27 23 22 16 24 26 15 12 12 17 25 18 31 36 11 9 23 19 15 20 20 29 29 29 28 27 32 40 38 40 39 38 37 34 32 30 28 26 23 20 16 14
4 9 19 29 32 23 18 36 30 12 5 13 25 30 31 24 23 33 30 25 19 16 20 27 31 33 29 28 28 30 36 40 40 39 39 37 34 33 31 28 25 22 19 17
5 7 15 19 28 31 25 19 25 26 19 13 10 24 26 32 38 31 24 28 20 16 18 21 28 31 28 28 28 28 30 35 35 35 37 37 35 33 31 31 28 24 21 20
12 9 8 16 15 19 28 23 18 22 31 15 10 14 15 28 23 21 28 35 22 18 16 14 24 29 28 25 28 28 29 34 36 36 36 36 37 35 34 33 30 28 25 22
11 7 11 18 11 17 23 21 27 22 18 32 29 31 7 13 19 17 20 25 27 28 19 12 27 30 30 29 25 28 29 34 36 36 37 37 36 36 35 34 32 30 27 25
5 5 5 12 17 20 14 19 28 31 25 21 19 26 23 25 22 17 11 14 20 28 24 23 20 20 34 33 29 26 27 31 35 37 38 37 37 38 36 34 33 32 30 27
10 12 11 13 5 4 5 15 16 12 22 29 29 19 14 16 29 28 21 17 15 18 25 25 25 23 23 36 33 28 26 29 31 36 39 40 38 36 35 35 35 34 32 30
10 9 13 20 21 21 23 21 19 16 15 21 27 28 27 19 21 29 24 21 17 15 18 21 20 19 16 31 34 35 28 29 32 35 38 40 38 36 36 36 36 35 34 32
16 8 13 21 17 16 24 25 26 25 22 19 22 29 28 33 26 24 27 28 25 22 27 27 22 23 20 20 35 32 34 29 30 31 34 36 38 37 38 36 36 36 34 34
18 10 7 13 11 16 17 23 28 22 19 19 22 28 32 29 29 32 29 29 25 25 29 33 31 29 28 23 27 33 27 34 30 30 28 32 35 37 37 36 36 35 33 33
21 17 9 12 13 7 3 9 15 20 21 24 23 24 33 34 35 33 29 23 26 26 29 33 38 34 34 29 27 29 31 31 32 32 30 29 32 34 33 34 34 33 32 31
32 20 11 7 9 19 10 10 18 17 15 21 27 29 32 34 34 36 40 38 31 25 32 36 40 38 39 38 32 33 33 32 35 34 32 31 31 30 30 30 30 31 30 29
29 26 20 12 8 7 9 14 15 19 9 19 28 30 29 30 27 31 34 38 37 33 28 35 39 44 45 43 38 38 34 31 32 36 31 34 31 28 29 29 28 26 27 26
23 26 28 20 15 12 18 16 9 14 9 19 25 29 29 33 30 28 26 30 31 28 26 26 36 44 49 48 39 41 36 29 30 31 32 28 28 27 24 23 23 24 25 25
14 18 15 16 12 16 15 13 11 16 18 21 22 26 32 30 28 27 21 17 20 25 16 23 30 33 39 47 39 42 37 33 31 35 31 29 26 24 23 23 24 24 24 25
5 16 9 15 13 18 17 17 15 18 26 21 23 26 28 30 26 25 21 18 14 11 14 22 23 27 31 36 37 42 41 36 41 37 32 31 31 31 28 27 26 23 22 22
8 7 5 7 9 15 16 4 11 19 21 22 23 25 24 28 28 26 23 21 19 16 14 19 24 27 31 34 35 39 43 40 42 40 36 34 36 35 33 31 29 25 21 22
25 17 11 3 12 4 5 4 7 25 18 20 23 23 21 23 26 25 24 21 21 23 22 18 19 25 29 33 36 38 39 44 45 42 38 40 42 39 37 35 32 28 25 27
22 28 15 11 13 6 11 8 11 25 27 21 21 24 21 20 22 23 23 21 20 21 23 25 22 23 26 30 32 35 37 41 46 47 44 45 37 32 37 33 29 29 28 28
Wind_Direction
198 206 212 210 215 212 220 222 213 217 203 214 223 227 230 241 244 238 208 199 181 198 194 198 201 200 201 204 202 201 199 199 199 199 196 191 191 193 189 187 186 185 209 209
210 218 222 218 218 217 220 219 219 224 214 220 228 237 244 243 246 245 228 215 206 194 203 200 202 206 206 209 211 206 202 204 203 202 203 196 199 197 198 197 187 182 185 202
215 225 233 227 225 220 221 224 217 215 222 222 227 244 242 241 244 241 238 238 230 227 214 212 206 207 210 211 214 215 207 208 206 206 206 203 203 200 200 196 188 179 176 195
232 226 234 232 231 224 227 223 220 220 224 230 223 241 236 244 239 233 233 237 241 234 224 215 214 212 211 210 213 217 215 213 211 210 210 209 208 204 204 207 201 183 181 191
218 232 227 234 227 226 231 239 229 228 238 257 236 237 236 234 229 226 230 234 236 233 229 226 219 221 218 212 212 215 217 215 216 214 211 209 209 204 203 208 207 194 192 200
226 234 221 238 246 253 235 240 227 233 238 245 234 231 241 228 232 230 233 237 240 248 237 230 226 219 219 220 218 216 217 217 216 214 211 210 210 210 206 208 208 201 202 210
226 223 226 229 215 227 219 209 201 210 216 235 227 231 227 229 239 240 239 234 235 244 240 236 230 223 216 221 220 218 217 217 216 212 210 208 210 211 212 207 206 205 206 214
218 213 217 220 227 219 208 204 201 214 218 228 220 234 228 231 216 224 234 234 244 243 240 235 233 229 220 219 220 220 219 219 218 214 211 209 210 211 213 210 207 205 204 210
219 235 211 212 219 218 215 216 219 252 247 238 227 242 245 233 241 244 247 250 259 239 232 222 221 223 217 214 219 216 217 217 218 217 211 209 211 211 212 213 211 205 204 211
245 262 220 215 213 218 212 223 206 224 237 234 216 232 229 230 236 241 245 247 254 228 215 215 221 219 218 216 214 213 217 216 216 216 215 211 211 214 212 213 214 208 206 213
264 248 234 220 216 214 209 207 208 225 226 228 236 236 233 230 234 249 253 250 244 210 228 241 212 218 219 216 215 216 212 215 214 214 215 215 213 213 214 214 215 213 211 213
259 260 255 237 218 212 206 210 221 223 212 233 244 238 213 186 190 221 225 235 237 235 245 236 216 208 210 208 210 217 216 215 217 217 218 216 216 216 215 216 216 217 216 217
228 244 267 252 242 231 227 221 217 221 228 230 224 240 241 233 232 227 209 192 222 233 237 228 224 221 215 210 209 213 216 217 217 217 218 219 219 219 218 217 220 221 221 221
249 244 234 256 301 283 226 206 204 207 221 228 234 241 236 237 234 238 237 231 205 222 226 241 239 237 224 214 211 207 216 213 217 221 219 220 221 222 220 219 221 223 224 224
244 251 254 257 273 277 276 242 233 235 222 224 233 238 241 231 227 234 229 223 227 232 225 220 228 236 228 211 211 209 206 210 215 218 221 221 221 221 220 219 221 223 225 227
235 254 272 277 280 296 276 259 250 243 236 245 220 229 236 233 230 237 236 232 233 228 220 231 223 225 224 214 204 208 213 211 213 218 223 223 222 222 221 220 222 223 224 228
235 239 279 268 310 313 275 256 239 235 237 227 228 222 236 234 239 245 254 247 239 235 227 224 222 226 226 215 210 206 209 213 216 216 220 224 222 222 221 219 221 223 223 227
228 230 256 278 313 246 268 230 224 199 220 223 224 214 229 233 232 236 240 243 243 242 234 230 222 222 224 220 210 206 205 212 216 215 215 224 218 220 219 219 219 220 223 227
222 227 246 257 264 273 263 174 153 164 202 209 214 206 221 229 232 235 243 248 248 255 233 230 227 225 227 222 212 202 204 208 210 210 215 223 212 210 212 215 218 220 223 226
224 222 231 240 259 257 213 196 199 189 185 194 201 204 207 209 214 226 239 248 252 259 256 229 223 223 229 228 214 196 203 205 209 214 222 222 218 211 207 210 214 217 221 224
195 211 223 232 249 278 280 246 230 192 185 189 190 197 199 199 213 219 231 242 249 253 253 232 229 231 230 214 214 194 201 201 206 209 181 181 184 184 186 193 200 207 213 218
180 188 209 224 243 260 272 274 230 214 190 180 177 181 196 195 192 200 209 226 243 256 259 225 203 197 192 198 195 193 195 196 194 185 199 199 198 201 203 200 202 208 212 219
120 210 210 210 227 239 270 274 270 230 183 176 174 171 174 179 178 188 190 198 205 218 238 209 188 193 189 192 190 191 192 192 197 201 209 203 204 203 201 199 199 209 222 235
47 94 252 244 252 257 257 269 256 211 191 176 172 171 169 174 173 177 175 182 186 179 192 199 187 192 195 198 194 191 191 192 204 207 211 208 203 201 200 204 211 220 236 245
27 27 16 350 343 233 285 289 277 216 192 183 174 173 168 173 173 172 172 174 164 167 180 167 185 187 193 199 194 194 192 195 205 210 206 200 206 210 211 220 220 226 238 244
17 16 7 312 343 319 310 272 267 214 204 186 181 177 172 172 174 170 171 174 170 170 180 187 176 178 187 194 197 198 198 197 203 211 209 211 208 206 239 233 232 231 237 240
Height
3111 3112 3108 3117 3124 3129 3132 3134 3138 3140 3144 3147 3148 3150 3152 3155 3157 3158 3161 3164 3166 3169 3174 3178 3182 3186 3190 3194 3197 3201 3205 3209 3212 3216 3219 3222 3226 3228 3231 3233 3234 3235 3236 3236
3108 3105 3114 3119 3121 3126 3129 3132 3136 3139 3142 3144 3146 3147 3149 3150 3154 3156 3159 3162 3165 3167 3170 3174 3178 3182 3185 3191 3195 3198 3203 3206 3210 3214 3219 3222 3225 3227 3229 3231 3233 3234 3235 3236
3103 3108 3110 3114 3118 3121 3124 3128 3132 3137 3139 3140 3143 3143 3143 3145 3148 3150 3154 3158 3162 3165 3168 3171 3174 3177 3182 3186 3191 3196 3200 3204 3208 3212 3216 3220 3222 3225 3228 3231 3233 3234 3235 3236
3103 3106 3106 3109 3113 3119 3120 3125 3129 3132 3136 3136 3138 3136 3136 3139 3142 3145 3149 3152 3157 3161 3164 3167 3170 3174 3177 3183 3188 3193 3197 3201 3204 3209 3212 3217 3221 3224 3228 3230 3232 3233 3235 3236
3099 3101 3104 3106 3109 3114 3118 3122 3126 3130 3132 3134 3132 3133 3131 3133 3134 3139 3143 3147 3151 3156 3160 3163 3167 3171 3175 3179 3182 3188 3193 3196 3200 3204 3209 3214 3218 3221 3224 3228 3230 3232 3234 3235
3096 3099 3102 3103 3108 3111 3116 3121 3122 3127 3130 3125 3125 3130 3123 3125 3129 3136 3140 3143 3147 3151 3154 3159 3164 3167 3169 3173 3177 3181 3187 3192 3195 3199 3204 3210 3215 3219 3222 3226 3229 3230 3232 3233
3091 3094 3098 3102 3104 3106 3112 3117 3119 3122 3118 3110 3121 3122 3118 3121 3125 3131 3136 3139 3143 3145 3149 3152 3157 3160 3163 3166 3171 3175 3180 3185 3191 3195 3199 3205 3210 3215 3220 3223 3226 3228 3230 3232
3087 3090 3092 3095 3098 3102 3104 3110 3107 3106 3104 3108 3115 3104 3106 3118 3121 3126 3130 3135 3138 3139 3142 3145 3150 3155 3159 3163 3166 3169 3174 3179 3185 3190 3195 3201 3206 3211 3216 3219 3223 3226 3228 3230
3084 3084 3084 3087 3091 3098 3101 3100 3107 3107 3104 3104 3099 3104 3105 3111 3115 3121 3125 3130 3131 3133 3135 3139 3144 3148 3153 3157 3161 3164 3168 3174 3179 3185 3190 3195 3202 3206 3212 3217 3220 3223 3225 3227
3081 3082 3080 3082 3085 3089 3093 3098 3103 3104 3100 3098 3093 3096 3096 3102 3108 3114 3118 3123 3127 3129 3131 3135 3138 3143 3147 3152 3156 3161 3164 3169 3175 3181 3186 3191 3197 3203 3208 3212 3216 3219 3222 3223
3079 3079 3078 3079 3080 3083 3086 3089 3092 3093 3093 3089 3091 3088 3092 3099 3104 3109 3113 3117 3123 3125 3128 3130 3135 3138 3142 3147 3151 3155 3160 3164 3169 3175 3181 3187 3192 3198 3202 3207 3211 3215 3218 3220
3076 3075 3074 3073 3074 3076 3077 3080 3084 3084 3085 3087 3088 3084 3091 3095 3100 3103 3106 3110 3115 3119 3124 3126 3129 3133 3136 3141 3145 3150 3155 3160 3165 3171 3176 3181 3187 3192 3196 3202 3206 3210 3213 3216
3073 3073 3073 3070 3072 3072 3072 3072 3074 3077 3081 3081 3082 3082 3090 3092 3095 3100 3103 3106 3108 3111 3116 3120 3123 3128 3132 3136 3140 3145 3150 3156 3161 3165 3170 3175 3180 3185 3191 3196 3201 3205 3209 3212
3070 3070 3070 3066 3067 3068 3069 3068 3069 3071 3074 3077 3077 3080 3083 3088 3091 3093 3096 3100 3103 3106 3109 3113 3117 3120 3125 3130 3135 3140 3145 3150 3155 3159 3163 3168 3173 3180 3186 3191 3195 3200 3204 3207
3068 3067 3067 3064 3063 3063 3062 3063 3064 3065 3068 3069 3075 3075 3079 3082 3083 3084 3088 3091 3094 3098 3103 3107 3110 3114 3118 3122 3128 3135 3140 3144 3149 3153 3157 3162 3169 3175 3179 3183 3188 3194 3197 3202
3063 3064 3062 3060 3059 3058 3054 3055 3057 3058 3060 3062 3066 3068 3072 3076 3077 3079 3080 3085 3088 3090 3093 3099 3103 3108 3112 3116 3122 3129 3135 3140 3144 3148 3152 3158 3163 3168 3173 3178 3182 3187 3192 3196
3060 3061 3062 3058 3056 3053 3050 3046 3047 3051 3053 3059 3061 3065 3068 3072 3075 3076 3077 3079 3083 3086 3090 3094 3098 3102 3107 3113 3118 3123 3129 3135 3139 3143 3148 3152 3157 3162 3167 3172 3176 3181 3186 3190
3054 3058 3059 3056 3055 3050 3043 3039 3040 3046 3048 3051 3056 3058 3061 3065 3066 3069 3071 3073 3076 3078 3082 3086 3090 3096 3102 3107 3112 3118 3123 3129 3134 3139 3144 3147 3151 3156 3161 3166 3170 3175 3179 3184
3047 3053 3056 3055 3053 3044 3040 3039 3037 3039 3043 3045 3049 3051 3053 3058 3061 3062 3064 3067 3070 3073 3076 3079 3083 3089 3094 3100 3106 3112 3118 3123 3129 3134 3138 3142 3146 3151 3156 3160 3166 3171 3174 3178
3041 3047 3051 3053 3051 3040 3035 3036 3036 3037 3040 3038 3041 3044 3048 3052 3055 3056 3058 3061 3063 3066 3068 3071 3075 3079 3084 3093 3099 3106 3113 3118 3123 3128 3133 3138 3142 3147 3151 3156 3161 3166 3170 3173
3035 3041 3043 3049 3049 3040 3033 3032 3032 3035 3037 3033 3035 3037 3043 3046 3047 3050 3053 3054 3056 3058 3059 3060 3063 3067 3074 3084 3093 3099 3107 3114 3118 3123 3128 3132 3138 3143 3148 3152 3156 3161 3164 3167
3034 3038 3040 3045 3045 3040 3030 3032 3031 3027 3029 3029 3031 3034 3037 3041 3042 3044 3047 3049 3050 3051 3052 3053 3055 3059 3062 3074 3085 3093 3102 3107 3114 3119 3124 3129 3134 3138 3143 3147 3152 3155 3158 3161
3036 3036 3037 3037 3033 3030 3027 3028 3026 3024 3024 3026 3027 3029 3032 3035 3038 3040 3044 3045 3046 3047 3049 3049 3050 3056 3062 3070 3077 3084 3093 3100 3108 3114 3120 3124 3129 3133 3138 3142 3146 3149 3152 3155
3032 3029 3032 3031 3029 3025 3024 3023 3021 3020 3019 3022 3024 3026 3028 3031 3033 3036 3038 3041 3042 3043 3044 3047 3049 3053 3059 3065 3072 3080 3088 3095 3102 3108 3114 3119 3124 3128 3132 3136 3141 3144 3146 3149
3033 3030 3028 3027 3024 3022 3021 3019 3016 3016 3014 3017 3020 3022 3025 3028 3029 3031 3034 3037 3038 3039 3042 3046 3046 3049 3054 3060 3066 3074 3081 3088 3095 3101 3107 3112 3117 3121 3126 3131 3134 3138 3141 3143
3031 3029 3027 3024 3020 3018 3015 3013 3012 3011 3012 3012 3016 3019 3021 3025 3027 3027 3030 3033 3036 3037 3039 3042 3045 3045 3050 3055 3061 3067 3074 3081 3087 3092 3097 3102 3108 3115 3121 3125 3127 3130 3134 3137